Terminal Aerodrome Forecast
Issued by NWS Green Bay, WI

Home | Current Version | Previous Version | Graphics & Text | Print | Product List | Glossary On
Versions: 1 2 3 4 5 6 7 8 9 10 11 12 13 14 15 16 17 18 19 20 21 22 23 24
613
FTUS43 KGRB 231133
TAFGRB
TAF
KGRB 231133Z 2312/2412 24005KT P6SM SCT250 WS020/23030KT
     FM231600 20008G14KT P6SM SCT250
     FM240200 18005KT P6SM SKC=

USA.gov is the U.S. government's official web portal to all federal, state and local government web resources and services.